Probability
0 0 0 0 0 0 0 0 0 0 0 0 3 3 0 6 3 23 29 35 45 48 45 58 65 68 71 65 77 81 77 77 74 74 74 71 58 52 52 52 42 39 35 39
0 0 0 0 0 0 0 0 0 0 0 0 3 0 6 3 10 26 29 45 42 48 55 58 61 61 68 68 65 61 65 68 68 71 74 58 52 48 39 35 29 26 23 29
0 0 0 0 0 0 0 0 0 0 0 0 0 3 6 10 10 26 39 45 48 55 55 48 48 45 45 58 65 61 58 58 61 68 68 45 45 32 19 19 16 10 13 23
0 0 0 0 0 0 0 0 0 0 0 0 0 0 3 19 16 26 29 48 52 52 42 29 32 32 32 35 45 52 55 55 48 58 48 42 39 29 16 13 6 6 3 3
0 0 0 0 0 0 0 0 0 0 0 0 0 0 0 10 19 23 39 48 42 26 26 26 26 19 23 29 35 35 32 35 35 35 39 29 32 19 10 6 3 0 0 0
0 0 0 0 0 0 0 0 0 0 0 0 0 0 0 3 16 16 26 42 19 23 23 13 6 6 6 16 26 23 23 26 29 32 23 19 10 10 6 0 0 0 0 0
0 0 0 0 0 0 0 0 0 0 0 0 0 0 0 6 10 16 26 35 16 13 10 10 3 3 3 3 0 6 13 13 13 13 6 6 6 6 0 0 0 0 0 0
0 0 0 0 0 0 0 0 0 0 0 0 0 0 10 10 13 19 32 19 10 10 6 6 3 0 0 0 0 0 0 0 0 0 0 3 3 0 0 0 0 0 0 0
0 0 0 0 0 0 0 0 0 0 0 0 0 0 3 19 16 26 16 16 10 6 3 0 0 0 0 0 0 0 0 0 0 0 0 0 0 0 0 0 0 0 0 0
0 0 0 0 0 0 0 0 0 0 0 0 0 0 0 10 13 13 13 10 10 3 0 0 0 0 0 0 0 0 0 0 0 0 0 0 0 0 0 0 0 0 0 0
0 0 0 0 0 0 0 0 0 0 0 0 0 0 0 3 16 16 10 13 6 0 0 0 0 0 0 0 0 0 0 0 0 0 0 0 0 0 0 0 0 0 0 0
0 0 0 0 0 0 0 0 0 0 0 0 0 0 0 10 10 16 6 0 3 0 0 0 0 0 0 0 0 0 0 0 0 0 0 0 0 0 0 0 0 0 0 0
0 0 0 0 0 0 0 0 0 0 0 0 0 0 3 10 6 10 0 0 0 0 0 0 0 0 0 0 0 0 0 0 0 0 0 0 0 0 0 0 0 0 0 0
0 0 0 0 0 0 0 0 0 0 3 0 0 3 3 0 10 3 0 0 0 0 0 0 0 0 0 0 0 0 0 0 0 0 0 0 0 0 0 0 0 0 0 0
0 0 0 0 0 0 0 0 0 0 0 0 0 0 10 10 3 3 0 0 0 0 0 0 0 0 0 0 0 0 0 0 0 0 0 0 0 0 0 0 0 0 0 0
3 0 3 0 0 0 0 0 0 0 0 0 0 6 13 13 6 3 0 0 0 0 0 0 0 0 0 0 0 0 0 0 0 0 0 0 0 0 0 0 0 0 0 0
3 3 0 0 0 0 0 0 0 0 0 0 0 6 6 3 3 3 0 0 0 0 0 0 0 0 0 0 0 0 0 0 0 0 0 0 0 0 0 0 0 0 0 0
6 13 3 0 0 0 0 0 0 0 3 6 10 13 10 10 10 6 0 0 0 0 0 0 0 0 0 0 0 0 0 0 0 0 0 0 0 0 0 0 0 0 0 0
13 10 0 0 0 0 0 0 0 6 3 0 3 10 6 3 3 3 0 0 0 0 0 0 0 0 0 0 0 0 0 0 0 0 0 0 0 0 0 0 0 0 0 0
3 16 3 0 0 0 0 0 0 3 0 0 13 10 3 3 0 0 0 0 0 0 0 0 0 0 0 0 0 0 0 0 0 0 0 0 0 0 0 0 0 0 0 0
0 3 0 0 0 0 0 0 0 0 3 6 10 10 3 3 3 0 0 0 0 0 0 0 0 0 0 0 0 0 0 0 0 0 0 0 0 0 0 0 0 0 0 0
0 0 0 0 0 0 0 0 0 23 16 10 13 3 10 6 0 0 0 0 0 0 0 0 0 0 0 0 0 0 0 0 0 0 0 0 0 0 0 0 0 0 0 0
3 3 3 13 16 29 16 26 19 16 16 13 6 10 3 0 0 0 0 0 0 0 0 0 0 0 0 0 0 0 0 0 0 0 0 0 0 0 0 0 0 0 0 0
0 3 10 10 19 13 3 13 10 13 13 10 3 0 0 0 0 0 0 0 0 0 0 0 0 0 0 0 0 0 0 0 0 0 0 0 0 0 0 0 0 0 0 0
0 0 6 13 10 0 6 6 3 6 3 3 0 0 0 0 0 0 0 0 0 0 0 0 0 0 0 0 0 0 0 0 0 0 0 0 0 0 0 0 0 0 0 0
3 0 3 19 16 16 6 6 6 3 3 0 0 0 0 0 0 0 0 0 0 0 0 0 0 0 0 0 0 0 0 0 0 0 0 0 0 0 0 0 0 0 0 0
Height
5795 5797 5798 5799 5801 5802 5803 5804 5805 5806 5805 5802 5801 5800 5800 5799 5798 5797 5796 5796 5795 5796 5796 5796 5796 5797 5798 5801 5804 5806 5808 5810 5810 5813 5815 5817 5818 5819 5821 5822 5823 5823 5823 5826
5793 5794 5795 5796 5797 5797 5797 5798 5799 5800 5800 5797 5796 5795 5793 5793 5791 5790 5789 5788 5789 5789 5789 5790 5791 5792 5793 5794 5797 5800 5802 5804 5804 5805 5808 5811 5813 5814 5816 5817 5818 5817 5819 5820
5790 5793 5793 5793 5793 5793 5793 5793 5794 5794 5794 5791 5791 5789 5788 5787 5784 5782 5781 5781 5782 5782 5783 5784 5785 5786 5787 5788 5791 5794 5796 5798 5799 5800 5803 5806 5807 5809 5811 5812 5812 5812 5814 5815
5788 5790 5790 5789 5789 5789 5789 5790 5789 5788 5787 5786 5787 5784 5783 5780 5778 5775 5774 5774 5775 5775 5776 5777 5778 5780 5781 5783 5785 5787 5789 5791 5793 5795 5797 5799 5801 5803 5805 5807 5808 5809 5809 5810
5784 5786 5786 5785 5785 5785 5784 5784 5783 5782 5781 5780 5780 5778 5776 5773 5771 5769 5766 5766 5768 5770 5770 5772 5772 5773 5774 5776 5778 5780 5783 5785 5786 5789 5791 5793 5795 5797 5799 5801 5803 5804 5805 5805
5780 5782 5782 5782 5781 5780 5779 5779 5777 5776 5776 5775 5774 5772 5768 5766 5764 5763 5762 5763 5763 5765 5766 5766 5767 5767 5768 5770 5772 5774 5776 5778 5780 5783 5785 5787 5790 5792 5793 5795 5797 5799 5799 5800
5777 5777 5777 5776 5776 5776 5776 5775 5774 5773 5771 5770 5768 5765 5763 5760 5758 5756 5757 5759 5759 5760 5761 5761 5761 5762 5763 5765 5767 5769 5771 5773 5774 5776 5779 5782 5785 5787 5788 5790 5792 5793 5794 5794
5774 5774 5772 5771 5772 5772 5771 5771 5771 5769 5767 5765 5762 5759 5757 5755 5753 5751 5752 5754 5755 5755 5756 5756 5756 5757 5758 5760 5762 5763 5765 5768 5769 5771 5774 5777 5779 5782 5783 5785 5786 5787 5788 5788
5770 5771 5769 5769 5769 5769 5767 5767 5767 5765 5763 5760 5759 5756 5750 5749 5749 5747 5748 5750 5751 5751 5751 5752 5752 5752 5753 5755 5757 5758 5760 5763 5765 5767 5769 5772 5774 5776 5778 5779 5780 5781 5782 5783
5766 5767 5767 5766 5766 5765 5764 5763 5763 5761 5759 5757 5755 5752 5749 5746 5743 5743 5744 5746 5746 5747 5747 5748 5748 5748 5749 5750 5752 5754 5756 5758 5760 5762 5765 5767 5769 5771 5772 5774 5775 5776 5776 5777
5762 5763 5764 5763 5763 5762 5761 5760 5759 5758 5756 5754 5752 5751 5746 5744 5742 5741 5742 5742 5743 5743 5743 5744 5744 5744 5745 5746 5747 5749 5751 5753 5755 5757 5759 5761 5763 5765 5767 5768 5769 5770 5771 5771
5758 5759 5759 5759 5758 5757 5757 5756 5756 5755 5753 5751 5749 5748 5742 5740 5738 5738 5738 5738 5738 5739 5739 5740 5740 5740 5741 5741 5742 5744 5746 5747 5749 5751 5753 5755 5757 5759 5760 5762 5763 5764 5765 5766
5754 5756 5755 5755 5755 5753 5753 5753 5752 5751 5749 5747 5746 5745 5739 5737 5735 5734 5734 5734 5735 5735 5735 5735 5735 5736 5736 5737 5738 5739 5740 5742 5743 5745 5747 5749 5751 5753 5754 5756 5757 5758 5759 5760
5751 5752 5752 5752 5750 5749 5750 5750 5750 5748 5747 5745 5743 5740 5736 5733 5732 5731 5730 5731 5730 5731 5731 5731 5731 5731 5732 5732 5733 5734 5736 5737 5738 5740 5742 5743 5745 5746 5748 5749 5751 5752 5752 5753
5748 5748 5748 5748 5748 5748 5748 5748 5747 5746 5744 5742 5739 5737 5734 5731 5728 5729 5728 5727 5727 5727 5727 5727 5726 5726 5727 5727 5728 5729 5731 5732 5733 5735 5736 5738 5739 5740 5742 5743 5744 5745 5746 5746
5744 5745 5745 5746 5746 5746 5746 5745 5744 5743 5741 5739 5736 5734 5731 5729 5726 5725 5725 5724 5723 5723 5722 5722 5721 5721 5722 5722 5723 5724 5725 5726 5728 5729 5730 5731 5733 5734 5735 5736 5737 5738 5739 5740
5741 5742 5743 5743 5743 5743 5743 5742 5741 5740 5738 5736 5733 5732 5728 5726 5724 5723 5721 5720 5719 5718 5717 5717 5717 5716 5717 5718 5718 5719 5720 5721 5722 5723 5724 5725 5727 5728 5729 5730 5731 5732 5733 5734
5740 5740 5741 5741 5741 5741 5742 5739 5738 5737 5735 5733 5730 5727 5725 5723 5721 5719 5717 5716 5715 5714 5713 5712 5712 5712 5712 5713 5714 5714 5715 5716 5716 5718 5719 5720 5721 5723 5724 5724 5725 5726 5727 5727
5738 5738 5738 5738 5738 5738 5737 5736 5735 5733 5731 5729 5727 5724 5722 5719 5717 5715 5713 5712 5710 5709 5709 5708 5708 5708 5709 5709 5710 5710 5710 5711 5712 5713 5714 5715 5717 5717 5718 5719 5720 5720 5721 5721
5736 5736 5737 5736 5736 5735 5735 5733 5732 5731 5728 5726 5723 5721 5719 5716 5714 5712 5710 5708 5706 5705 5705 5705 5705 5705 5705 5705 5706 5706 5706 5707 5708 5709 5710 5711 5712 5713 5713 5714 5714 5715 5716 5716
5734 5734 5735 5734 5733 5732 5732 5731 5730 5729 5728 5723 5720 5718 5716 5713 5712 5710 5707 5705 5703 5702 5702 5702 5702 5702 5702 5702 5703 5704 5704 5704 5705 5706 5706 5707 5708 5709 5709 5709 5709 5710 5710 5710
5731 5732 5732 5732 5732 5733 5730 5729 5728 5727 5723 5721 5718 5716 5713 5711 5709 5706 5704 5702 5701 5700 5699 5699 5699 5699 5699 5700 5700 5701 5701 5701 5702 5702 5703 5704 5704 5705 5705 5705 5705 5705 5706 5706
5728 5730 5730 5730 5731 5730 5728 5727 5725 5723 5721 5719 5716 5714 5711 5709 5707 5705 5702 5701 5700 5699 5698 5697 5697 5697 5697 5697 5698 5698 5698 5699 5699 5700 5700 5701 5701 5701 5701 5701 5701 5702 5702 5701
5726 5727 5728 5728 5728 5728 5726 5725 5723 5721 5719 5717 5714 5712 5710 5708 5705 5703 5701 5700 5698 5697 5696 5696 5696 5695 5695 5696 5696 5696 5696 5696 5697 5697 5697 5698 5698 5698 5698 5698 5698 5698 5698 5697
5723 5725 5727 5727 5727 5726 5725 5724 5722 5720 5718 5716 5713 5711 5709 5707 5705 5703 5701 5699 5697 5696 5695 5695 5694 5694 5694 5694 5694 5694 5694 5695 5695 5695 5696 5696 5696 5696 5695 5695 5694 5694 5694 5693
5722 5724 5726 5727 5726 5726 5724 5723 5721 5719 5717 5715 5713 5711 5709 5707 5705 5702 5700 5699 5697 5696 5695 5694 5694 5693 5693 5693 5693 5693 5693 5693 5694 5694 5694 5695 5694 5694 5693 5693 5692 5692 5691 5691
Wind_Speed
10 10 9 8 10 12 15 16 18 18 18 22 22 20 21 22 23 25 27 26 27 30 32 33 34 33 34 33 33 33 32 31 29 28 27 26 24 22 22 22 22 23 24 25
8 8 9 10 13 16 16 16 16 16 17 22 23 21 21 23 25 27 28 28 28 30 33 33 34 34 35 35 35 34 34 31 30 28 27 25 23 21 21 20 20 21 21 23
7 7 12 13 14 15 14 14 15 16 19 22 22 22 22 25 27 28 28 28 27 30 32 34 34 35 36 36 35 36 35 33 31 29 27 26 24 22 21 21 22 21 21 23
10 11 15 15 14 14 14 13 17 18 20 21 20 24 24 27 29 30 29 28 27 29 30 32 34 35 37 38 37 37 36 35 33 31 28 26 25 24 23 23 23 22 23 23
10 12 15 15 13 15 15 15 18 19 20 21 21 25 26 27 29 30 26 24 24 25 27 29 32 34 35 37 37 38 37 36 35 32 29 28 26 25 24 24 24 24 25 25
9 12 14 14 15 16 16 16 17 16 18 21 21 24 26 28 29 28 26 21 20 21 23 25 28 31 32 34 35 37 36 36 35 33 31 31 29 27 26 26 26 26 26 26
8 12 15 15 15 15 16 16 16 16 19 21 22 24 26 26 25 26 22 19 19 20 22 23 25 27 29 31 32 34 34 34 34 32 32 32 30 28 27 26 26 26 26 27
10 13 14 15 16 16 15 15 16 19 20 22 23 24 23 23 21 17 16 17 18 20 20 22 23 25 27 28 30 31 32 32 32 31 31 31 29 29 28 27 27 26 26 27
12 14 13 15 17 17 14 13 14 19 20 23 23 24 21 18 19 16 15 16 18 19 19 21 22 23 25 26 27 29 31 31 32 32 31 31 30 29 27 27 27 26 26 26
14 15 12 14 15 13 12 11 14 16 19 21 20 21 22 21 18 14 14 15 16 16 18 20 21 21 22 24 26 27 29 31 31 32 32 30 30 29 27 28 28 27 27 27
16 15 12 11 12 12 13 13 14 15 17 20 21 22 24 20 18 15 14 15 15 16 18 20 20 20 21 22 23 25 26 28 30 31 31 31 29 29 28 28 28 28 28 27
16 15 13 12 13 13 14 14 14 16 16 18 20 23 23 20 18 16 15 15 16 17 18 20 21 21 22 22 23 24 25 26 28 28 29 29 29 29 28 28 28 27 27 27
15 15 13 13 13 12 12 13 13 15 17 17 19 23 22 20 16 16 15 15 15 17 18 19 19 20 21 22 22 22 24 25 26 27 27 28 28 28 28 28 28 28 27 27
15 14 13 12 10 9 9 10 11 15 17 17 18 22 22 19 17 15 14 15 15 17 18 19 19 19 20 22 22 22 23 23 25 26 26 26 27 28 29 29 29 28 27 28
14 13 12 10 8 8 9 10 12 15 17 18 20 21 21 19 18 16 16 15 16 17 18 19 19 19 20 20 21 22 23 24 24 25 26 26 27 27 28 28 29 29 28 28
12 11 10 9 8 8 9 11 13 14 16 17 19 20 20 20 19 18 17 18 18 19 19 20 19 19 19 20 21 21 22 22 23 24 24 25 25 26 26 26 26 27 27 27
11 10 9 9 9 8 10 11 13 14 16 17 18 19 20 19 19 19 19 19 18 19 19 18 19 19 19 19 20 21 22 22 22 23 24 24 24 24 24 26 26 26 26 25
10 10 10 9 8 9 9 11 12 14 15 16 17 18 18 19 20 20 19 19 18 18 18 17 17 16 16 17 18 19 21 20 20 21 22 23 23 24 24 24 23 24 24 24
12 11 11 10 8 10 10 12 13 14 15 16 17 17 18 19 19 18 17 17 16 15 15 15 15 15 14 15 15 16 16 17 18 18 19 20 20 21 21 21 21 22 22 22
11 10 10 9 10 11 10 13 14 16 16 16 16 16 16 17 17 16 16 15 14 13 12 12 13 14 13 12 13 13 13 13 13 14 15 15 16 16 18 18 19 19 19 20
10 9 10 9 10 12 12 13 15 16 16 16 16 15 15 16 15 15 14 13 11 11 11 11 11 11 11 11 11 10 10 10 11 13 13 14 14 15 15 16 16 17 18 18
9 10 10 10 11 12 13 14 14 14 15 15 15 15 15 15 14 13 12 11 10 9 8 8 9 9 9 9 9 9 10 11 11 11 12 13 13 14 14 14 15 16 16 17
10 10 10 10 10 11 12 13 13 13 13 14 14 14 13 13 13 12 11 10 9 8 8 8 8 7 7 7 8 9 9 9 9 9 10 11 11 11 12 13 14 14 15 15
9 9 9 9 10 10 11 12 12 12 12 13 12 12 12 12 12 11 10 9 8 7 6 6 6 6 6 6 7 7 7 7 7 8 8 9 9 10 11 12 13 13 14 14
7 7 7 8 8 9 9 10 11 11 11 11 11 11 11 10 10 9 9 8 7 6 5 5 5 5 5 6 6 6 6 6 6 6 7 7 8 9 9 10 10 11 10 10
7 5 6 7 7 8 8 8 9 10 10 10 10 10 10 10 10 9 9 8 6 5 4 4 4 4 4 5 5 5 5 5 5 5 5 6 7 7 8 8 8 8 8 8
Wind_Direction
249 257 256 267 270 256 247 242 242 250 253 263 272 270 264 261 260 261 263 258 252 249 250 251 250 248 246 248 248 249 250 252 250 250 252 252 252 255 258 261 262 256 253 257
247 267 261 249 252 260 263 260 260 264 263 265 270 268 263 262 261 259 260 259 254 252 251 252 250 248 246 246 245 247 249 252 254 252 254 257 257 259 265 268 267 264 263 263
242 256 265 263 267 276 274 270 263 258 258 266 276 276 270 265 261 260 261 261 257 253 252 252 249 248 247 247 246 246 248 251 253 255 257 257 260 264 267 268 269 271 268 267
241 244 258 269 275 279 279 276 269 265 268 271 273 272 267 266 264 265 261 257 257 254 252 250 248 247 247 246 246 247 248 249 251 253 254 255 258 261 266 270 270 273 273 273
233 248 263 272 279 279 272 268 268 270 272 273 269 270 270 264 267 271 264 257 254 254 253 251 249 247 246 246 246 246 247 249 252 253 253 255 256 260 265 269 271 272 271 271
229 251 266 272 277 284 284 281 280 283 280 275 276 272 269 268 273 272 271 271 260 257 257 253 250 249 248 247 247 246 248 249 251 254 254 256 259 263 266 267 269 271 271 270
255 265 267 271 273 286 287 288 288 284 280 281 279 274 269 271 274 272 270 271 265 260 258 253 250 247 247 247 248 247 247 248 251 253 255 259 262 263 268 268 268 270 269 268
265 279 275 274 281 288 284 280 281 282 285 287 288 282 275 271 275 273 270 268 266 262 257 253 251 249 248 248 248 247 247 250 252 255 257 261 263 265 267 268 268 269 269 269
242 257 265 270 279 286 286 271 270 275 283 287 289 286 283 277 275 268 271 272 268 263 257 253 253 252 249 248 249 248 249 251 253 256 259 262 264 265 267 269 269 269 270 270
247 257 260 267 277 286 282 269 270 277 284 288 289 291 292 292 275 265 270 270 268 264 260 257 255 255 251 249 249 249 250 251 253 256 258 258 259 261 263 266 269 271 272 271
253 256 254 258 268 274 277 276 276 280 281 285 290 293 293 295 290 284 278 269 264 263 263 260 258 257 256 252 251 249 249 251 252 254 257 259 259 260 262 264 266 268 269 269
254 257 254 250 254 259 265 267 271 279 281 280 286 294 297 295 294 285 280 272 267 264 263 263 263 261 258 256 256 251 250 251 253 255 256 257 259 260 260 262 265 267 267 267
255 261 262 258 259 260 263 275 278 286 286 283 287 294 299 299 295 289 281 276 271 266 265 266 266 264 260 258 257 253 253 254 255 256 256 256 257 258 260 261 263 264 265 266
256 264 268 272 280 289 286 289 288 290 289 290 289 293 297 301 298 298 285 278 273 268 269 269 268 266 263 260 258 255 256 256 256 257 256 257 258 259 260 261 264 265 267 269
252 257 264 272 279 287 292 291 287 287 288 290 290 295 298 301 300 298 293 283 278 274 273 272 271 269 265 262 259 255 257 256 256 258 257 258 258 258 260 262 263 265 268 269
247 252 264 270 271 277 282 284 283 286 290 292 292 296 298 299 301 299 296 291 285 282 280 278 275 271 265 266 264 259 258 259 259 257 256 256 256 258 260 261 262 264 265 267
250 254 262 262 266 270 278 284 287 291 295 296 296 298 297 298 300 300 297 293 287 283 281 279 278 270 264 265 264 260 259 260 259 259 258 259 261 260 262 264 265 266 268 269
253 260 263 267 265 280 280 287 290 293 297 299 301 300 302 304 303 301 297 293 288 283 278 276 275 270 265 263 262 261 262 260 259 259 258 260 262 264 264 266 268 270 271 271
254 262 267 271 272 290 287 295 298 299 301 303 304 304 306 307 306 303 300 297 294 282 279 275 272 271 268 267 265 266 266 261 260 259 260 262 264 265 265 267 269 272 272 274
248 263 273 278 283 292 294 302 305 309 310 310 309 309 309 310 309 307 305 302 298 288 279 277 273 271 270 269 268 270 268 262 258 260 262 264 265 266 268 270 273 275 276 277
242 256 264 274 286 295 298 304 310 313 313 313 313 313 312 312 314 314 312 310 303 295 284 278 274 273 273 270 269 268 272 271 271 272 271 272 274 276 278 279 278 278 279 280
233 250 261 269 283 295 300 304 308 311 314 317 318 318 316 317 318 318 316 312 306 301 296 284 281 279 275 273 271 270 274 276 277 277 276 276 277 278 279 280 282 281 281 282
227 244 260 272 287 296 300 306 312 316 319 321 321 322 320 322 322 322 319 312 307 300 296 290 286 284 281 277 274 276 277 279 277 277 278 280 281 282 285 287 287 286 285 285
230 245 261 278 290 298 306 312 318 324 327 326 327 327 327 327 328 327 323 320 314 305 299 294 294 289 282 280 282 283 287 285 281 280 283 289 293 292 291 289 288 287 287 287
233 231 256 279 291 301 309 316 324 330 332 333 335 336 337 337 338 335 332 333 329 319 310 301 300 291 286 292 292 289 288 287 289 294 296 295 297 298 298 296 294 292 292 294
235 247 258 277 291 304 313 323 331 340 344 342 344 347 348 350 350 349 348 350 350 348 344 334 318 303 295 294 289 288 288 285 291 299 301 300 301 304 304 306 306 304 304 307